#timestamp,LO_Frequency,Hit,StdDev 
1624071615.8,286047004.2,Y
1624071635.7,286047001.0,P
1624071655.5,286047002.4,P
1624071675.3,286047000.1,N
1624071695.2,286046999.7,N
1624071715.0,286047000.6,N
1624071715.9,286047000.6,N
1624071735.8,286046999.9,N
1624071755.6,286047000.6,N
1624071775.4,286047002.3,N
1624071795.3,286047001.9,N
1624071815.1,286047002.8,Y
1624071835.9,286047000.3,P
1624071855.7,286047002.1,P
1624071875.5,286047002.1,N
1624071895.4,286047002.7,Y
1624071915.2,286046998.5,P
1624071935.1,286046994.9,P
1624071936.0,286046994.9,N
1624071955.8,286046995.7,N
1624071975.6,286046995.1,N
1624071995.5,286046999.6,N
1624072015.3,286046997.7,N
1624072035.1,286046996.6,N
1624072055.9,286046999.0,N
1624072075.7,286046998.9,N
1624072095.6,286047000.7,N
1624072115.4,286046998.6,N
1624072135.2,286047000.6,N
1624072155.1,286047000.0,N
1624072156.0,286047000.0,N
1624072175.8,286046998.6,N
1624072195.6,286046999.4,N
1624072215.5,286047000.5,N
1624072235.3,286047002.3,N
1624072255.2,286047000.6,N
1624072275.9,286047001.1,N
1624072295.7,286047000.2,N
1624072315.6,286047000.3,N
1624072335.4,286047000.5,N
1624072355.2,286046999.1,N
1624072375.1,286046998.2,N
1624072376.0,286046998.2,N
1624072395.8,286047000.9,N
1624072415.7,286046998.8,N
1624072435.5,286047001.1,N
1624072455.3,286047000.8,N
1624072475.2,286047000.7,N
1624072495.0,286047000.9,N
1624072495.9,286047000.9,N
1624072515.7,286047000.4,N
1624072535.6,286047000.9,N
1624072555.4,286047000.9,N
1624072575.3,286046998.6,N
1624072595.1,286046999.0,N
1624072596.0,286046999.0,N
1624072615.8,286046999.2,N
1624072635.7,286046998.6,N
1624072655.5,286046998.3,N
1624072675.3,286046998.7,N
1624072695.2,286046998.8,N
1624072715.0,286046998.9,N
1624072715.9,286046998.9,N
1624072735.8,286047000.6,N
1624072755.6,286046998.6,N
1624072775.4,286046996.8,Y
1624072795.3,286046998.6,P
1624072815.1,286046998.2,P
1624072835.9,286047000.3,N
1624072855.7,286047000.8,N
1624072875.5,286047000.9,N
1624072895.4,286047000.8,N
1624072915.2,286047001.2,N
1624072935.0,286047000.9,N
1624072935.9,286047000.9,N
1624072955.8,286047000.9,N
1624072975.6,286047002.3,N
1624072995.5,286047002.3,N
1624073015.3,286047002.0,N
1624073035.1,286047002.0,N
1624073055.9,286047001.9,N
1624073075.7,286047002.1,N
1624073095.5,286047002.8,N
1624073115.4,286046999.9,N
1624073135.2,286047000.4,N
1624073155.0,286047000.3,N
1624073156.0,286047000.3,N
1624073175.8,286046999.9,N
1624073195.6,286047000.0,N
1624073215.5,286047000.9,N
1624073235.3,286046998.2,N
1624073255.1,286047000.7,N
1624073275.9,286046998.1,N
1624073295.7,286047000.1,N
1624073315.6,286047000.9,N
1624073335.4,286047000.0,N
1624073355.2,286047000.2,N
1624073375.1,286047001.0,N
1624073376.0,286047001.0,N
1624073395.8,286046999.0,N
1624073415.6,286046996.6,Y
1624073435.5,286046997.5,P
1624073455.3,286046997.3,N
1624073475.2,286046997.1,N
1624073495.9,286046996.9,N
1624073515.7,286046996.8,N
1624073535.6,286046997.4,N
1624073555.4,286046996.5,N
1624073575.2,286046999.5,N
1624073595.1,286046999.5,N
1624073596.0,286046999.5,N
1624073615.8,286046999.0,N
1624073635.7,286046998.5,N
1624073655.5,286046999.2,N
1624073675.3,286046999.4,N
1624073695.2,286046999.2,N
1624073715.0,286046996.9,N
1624073715.9,286046996.9,N
1624073735.7,286046997.0,N
1624073755.6,286046997.1,N
1624073775.4,286046997.4,N
1624073795.3,286046995.0,Y
1624073815.1,286046996.5,P
1624073835.8,286046998.7,N
1624073855.7,286046998.9,N
1624073875.5,286046998.8,N
1624073895.4,286047001.2,N
1624073915.2,286046998.8,N
1624073935.0,286046996.7,N
1624073935.9,286046996.7,N
1624073955.8,286046996.7,N
1624073975.6,286046996.6,N
1624073995.5,286046996.9,N
1624074015.3,286046999.5,N
1624074035.1,286046997.7,N
1624074055.9,286046997.6,N
1624074075.7,286046997.0,N
1624074095.5,286046997.6,N
1624074115.4,286046995.5,Y
1624074135.2,286046999.5,P
1624074155.1,286046997.4,P
1624074156.0,286046997.4,N
1624074175.8,286046997.6,N
1624074195.6,286046997.8,N
1624074215.5,286046997.3,Y
1624074235.3,286046998.3,P
1624074255.2,286047001.2,P
1624074275.9,286047001.2,N
1624074295.7,286047000.9,N
1624074315.6,286046998.5,N
1624074335.4,286046998.8,N
1624074355.2,286046998.5,N
1624074375.1,286046998.8,N
1624074376.0,286046998.8,N
1624074395.8,286046998.3,N
1624074415.7,286046999.3,N
1624074435.5,286046996.5,Y
1624074455.3,286046996.8,P
1624074475.2,286046998.0,N
1624074495.0,286046997.5,N
1624074495.9,286046997.5,N
1624074515.8,286046997.6,Y
1624074535.6,286047000.7,P
1624074555.4,286046998.8,N
1624074575.3,286046999.3,N
1624074595.1,286046999.3,N
1624074615.8,286046999.4,N
1624074635.7,286046999.1,N
1624074655.5,286046996.8,Y
1624074675.4,286046999.4,P
1624074695.2,286046999.2,P
1624074715.0,286046996.5,P
1624074715.9,286046996.5,N
1624074735.8,286046997.1,N
1624074755.6,286046999.1,N
1624074775.5,286046998.9,N
1624074795.3,286046998.9,N
1624074815.1,286046998.1,N
1624074835.9,286047000.5,N
1624074855.7,286047000.5,N
1624074875.6,286047000.8,N
1624074895.4,286046999.8,N
1624074915.2,286046999.9,N
1624074935.1,286047000.4,N
1624074936.0,286047000.4,N
1624074955.8,286047002.4,N
1624074975.6,286047001.3,N
1624074995.5,286047000.1,N
1624075015.3,286046999.7,N
1624075035.2,286046999.8,N
1624075055.9,286047001.4,N
1624075075.7,286047002.0,N
1624075095.6,286047001.5,N
1624075115.4,286047003.1,N
1624075135.2,286047004.2,N
1624075155.1,286047001.4,N
1624075156.0,286047001.4,N
1624075175.8,286047001.4,N
1624075195.7,286047003.6,N
